N835PA KALW-KTWF

Flight info

Callsign N835PA
Flight time 2h 1m
Altitude 12500
Route PDT/N0145F150 CADKI RENOL
Aircraft PA24/L-SDGRY/S

Departure

Time 2026-05-06 16:34
Airport Walla Walla Regional Airport (KALW)

Arrival

Time 2026-05-06 18:36
Airport Joslin Field Magic Valley Regional Airport (KTWF)
Time Latitude Longitude Altitude Speed Heading
2026-05-06 16:14 46.09309 -118.27956 1185 ft 0 kts 289°
2026-05-06 16:27 46.09309 -118.27958 1185 ft 2 kts 289°
2026-05-06 16:27 46.09346 -118.27951 1185 ft 10 kts 38°
2026-05-06 16:27 46.09415 -118.27886 1187 ft 9 kts
2026-05-06 16:27 46.09477 -118.27913 1188 ft 11 kts 34°
2026-05-06 16:28 46.09548 -118.27839 1190 ft 15 kts 39°
2026-05-06 16:28 46.09640 -118.27740 1193 ft 18 kts 36°
2026-05-06 16:28 46.09745 -118.27631 1195 ft 16 kts 36°
2026-05-06 16:28 46.09808 -118.27605 1197 ft 0 kts 287°
2026-05-06 16:33 46.09813 -118.27611 1197 ft 4 kts 346°
2026-05-06 16:33 46.09863 -118.27607 1197 ft 10 kts
2026-05-06 16:34 46.09802 -118.27836 1195 ft 47 kts 216°
2026-05-06 16:34 46.09429 -118.28238 1269 ft 75 kts 213°
2026-05-06 16:34 46.09003 -118.28708 1510 ft 79 kts 216°
2026-05-06 16:34 46.08559 -118.29197 1805 ft 80 kts 212°
2026-05-06 16:35 46.08098 -118.29608 2113 ft 79 kts 204°
2026-05-06 16:35 46.07614 -118.30023 2400 ft 77 kts 211°
2026-05-06 16:35 46.07163 -118.30448 2658 ft 80 kts 214°
2026-05-06 16:35 46.06719 -118.30857 2909 ft 75 kts 211°
2026-05-06 16:36 46.06277 -118.31248 3128 ft 73 kts 214°
2026-05-06 16:36 46.05842 -118.31632 3325 ft 72 kts 211°
2026-05-06 16:36 46.05413 -118.32002 3481 ft 74 kts 213°
2026-05-06 16:36 46.04971 -118.32378 3669 ft 73 kts 212°
2026-05-06 16:37 46.04519 -118.32773 3827 ft 78 kts 215°
2026-05-06 16:37 46.04071 -118.33188 3998 ft 76 kts 213°
2026-05-06 16:37 46.03606 -118.33563 4167 ft 79 kts 207°
2026-05-06 16:37 46.03130 -118.33955 4383 ft 78 kts 217°
2026-05-06 16:38 46.02688 -118.34415 4563 ft 78 kts 218°
2026-05-06 16:38 46.02253 -118.34866 4778 ft 79 kts 220°
2026-05-06 16:38 46.01822 -118.35343 4961 ft 78 kts 219°
2026-05-06 16:38 46.01384 -118.35825 5128 ft 79 kts 222°
2026-05-06 16:39 46.00960 -118.36318 5325 ft 79 kts 220°
2026-05-06 16:39 46.00511 -118.36795 5482 ft 82 kts 223°
2026-05-06 16:39 46.00074 -118.37306 5677 ft 80 kts 223°
2026-05-06 16:39 45.99653 -118.37846 5825 ft 81 kts 227°
2026-05-06 16:40 45.99244 -118.38397 5984 ft 82 kts 226°
2026-05-06 16:40 45.98818 -118.38961 6150 ft 83 kts 225°
2026-05-06 16:40 45.98362 -118.39448 6316 ft 80 kts 222°
2026-05-06 16:40 45.97901 -118.39916 6471 ft 83 kts 216°
2026-05-06 16:41 45.97398 -118.40290 6657 ft 81 kts 211°
2026-05-06 16:41 45.96899 -118.40711 6838 ft 83 kts 219°
2026-05-06 16:41 45.96441 -118.41178 7006 ft 81 kts 224°
2026-05-06 16:41 45.96030 -118.41745 7172 ft 80 kts 230°
2026-05-06 16:42 45.95600 -118.42260 7311 ft 84 kts 220°
2026-05-06 16:42 45.95127 -118.42742 7497 ft 82 kts 220°
2026-05-06 16:42 45.94647 -118.43214 7653 ft 85 kts 220°
2026-05-06 16:42 45.94168 -118.43678 7814 ft 84 kts 217°
2026-05-06 16:43 45.93655 -118.44107 7947 ft 86 kts 213°
2026-05-06 16:43 45.93116 -118.44480 8108 ft 87 kts 211°
2026-05-06 16:43 45.92564 -118.44852 8292 ft 86 kts 207°
2026-05-06 16:43 45.92000 -118.45153 8477 ft 89 kts 207°
2026-05-06 16:44 45.91435 -118.45494 8683 ft 86 kts 208°
2026-05-06 16:44 45.90864 -118.45800 8849 ft 90 kts 204°
2026-05-06 16:44 45.90266 -118.46056 9069 ft 88 kts 204°
2026-05-06 16:44 45.89875 -118.46232 9189 ft 90 kts 206°
2026-05-06 16:45 45.89062 -118.46581 9440 ft 91 kts 201°
2026-05-06 16:45 45.88646 -118.46703 9540 ft 93 kts 198°
2026-05-06 16:45 45.88010 -118.46880 9759 ft 92 kts 199°
2026-05-06 16:45 45.87390 -118.47136 9937 ft 93 kts 205°
2026-05-06 16:46 45.86756 -118.47335 10101 ft 96 kts 189°
2026-05-06 16:46 45.86077 -118.47373 10281 ft 97 kts 190°
2026-05-06 16:46 45.85395 -118.47419 10440 ft 100 kts 192°
2026-05-06 16:46 45.84700 -118.47498 10627 ft 102 kts 192°
2026-05-06 16:47 45.83986 -118.47553 10784 ft 104 kts 190°
2026-05-06 16:47 45.83264 -118.47615 10964 ft 104 kts 191°
2026-05-06 16:47 45.82535 -118.47634 11124 ft 106 kts 185°
2026-05-06 16:47 45.81796 -118.47674 11313 ft 106 kts 192°
2026-05-06 16:48 45.81058 -118.47778 11485 ft 107 kts 192°
2026-05-06 16:48 45.80306 -118.47830 11653 ft 109 kts 188°
2026-05-06 16:48 45.79543 -118.47850 11824 ft 110 kts 189°
2026-05-06 16:48 45.78774 -118.47905 11996 ft 111 kts 191°
2026-05-06 16:49 45.77999 -118.47983 12166 ft 112 kts 191°
2026-05-06 16:49 45.77219 -118.48079 12341 ft 113 kts 192°
2026-05-06 16:49 45.76419 -118.48151 12456 ft 119 kts 189°
2026-05-06 16:49 45.75576 -118.48216 12556 ft 128 kts 189°
2026-05-06 16:50 45.74642 -118.48323 12548 ft 141 kts 192°
2026-05-06 16:50 45.73638 -118.48446 12543 ft 149 kts 190°
2026-05-06 16:50 45.72575 -118.48582 12546 ft 154 kts 191°
2026-05-06 16:50 45.71496 -118.48724 12555 ft 158 kts 191°
2026-05-06 16:51 45.70377 -118.48862 12478 ft 166 kts 190°
2026-05-06 16:51 45.69204 -118.49002 12422 ft 169 kts 188°
2026-05-06 16:51 45.68047 -118.49080 12471 ft 166 kts 186°
2026-05-06 16:51 45.66898 -118.49164 12524 ft 163 kts 189°
2026-05-06 16:52 45.65759 -118.49223 12514 ft 165 kts 177°
2026-05-06 16:52 45.64623 -118.48863 12518 ft 169 kts 170°
2026-05-06 16:52 45.63477 -118.48456 12524 ft 170 kts 170°
2026-05-06 16:52 45.62323 -118.48058 12524 ft 170 kts 170°
2026-05-06 16:53 45.61168 -118.47679 12522 ft 170 kts 169°
2026-05-06 16:53 45.60022 -118.47282 12518 ft 169 kts 169°
2026-05-06 16:53 45.58881 -118.46890 12519 ft 168 kts 170°
2026-05-06 16:53 45.57748 -118.46512 12527 ft 167 kts 170°
2026-05-06 16:54 45.56613 -118.46129 12531 ft 168 kts 169°
2026-05-06 16:54 45.55492 -118.45742 12531 ft 168 kts 169°
2026-05-06 16:54 45.54359 -118.45357 12530 ft 167 kts 167°
2026-05-06 16:54 45.53309 -118.44643 12530 ft 168 kts 154°
2026-05-06 16:55 45.52274 -118.43862 12529 ft 170 kts 154°
2026-05-06 16:55 45.51267 -118.43096 12529 ft 169 kts 153°
2026-05-06 16:55 45.50225 -118.42304 12531 ft 170 kts 153°
2026-05-06 16:55 45.49229 -118.41542 12531 ft 170 kts 154°
2026-05-06 16:56 45.48188 -118.40759 12529 ft 170 kts 154°
2026-05-06 16:56 45.47182 -118.39999 12518 ft 170 kts 153°
2026-05-06 16:56 45.46149 -118.39208 12530 ft 168 kts 154°
2026-05-06 16:56 45.45144 -118.38448 12521 ft 168 kts 154°
2026-05-06 16:57 45.44152 -118.37693 12532 ft 168 kts 154°
2026-05-06 16:57 45.43118 -118.36913 12538 ft 169 kts 154°
2026-05-06 16:57 45.42077 -118.36132 12535 ft 169 kts 154°
2026-05-06 16:57 45.41034 -118.35361 12536 ft 171 kts 154°
2026-05-06 16:58 45.40000 -118.34594 12543 ft 169 kts 154°
2026-05-06 16:58 45.38957 -118.33818 12548 ft 169 kts 153°
2026-05-06 16:58 45.37910 -118.33038 12549 ft 170 kts 154°
2026-05-06 16:58 45.36864 -118.32258 12549 ft 170 kts 154°
2026-05-06 16:59 45.35816 -118.31481 12550 ft 170 kts 153°
2026-05-06 16:59 45.34772 -118.30695 12549 ft 170 kts 154°
2026-05-06 16:59 45.33725 -118.29921 12549 ft 170 kts 154°
2026-05-06 16:59 45.32677 -118.29143 12549 ft 170 kts 154°
2026-05-06 17:00 45.31630 -118.28369 12549 ft 170 kts 154°
2026-05-06 17:00 45.30581 -118.27596 12551 ft 170 kts 153°
2026-05-06 17:00 45.29697 -118.26507 12550 ft 169 kts 132°
2026-05-06 17:00 45.29172 -118.25032 12554 ft 168 kts 101°
2026-05-06 17:01 45.28946 -118.23416 12556 ft 167 kts 97°
2026-05-06 17:01 45.28737 -118.21795 12555 ft 166 kts 97°
2026-05-06 17:01 45.28515 -118.20182 12554 ft 167 kts 98°
2026-05-06 17:01 45.28302 -118.18564 12555 ft 167 kts 96°
2026-05-06 17:02 45.28093 -118.16940 12554 ft 167 kts 96°
2026-05-06 17:02 45.27880 -118.15317 12554 ft 167 kts 97°
2026-05-06 17:02 45.27664 -118.13692 12554 ft 168 kts 96°
2026-05-06 17:02 45.27448 -118.12065 12583 ft 168 kts 96°
2026-05-06 17:03 45.27227 -118.10454 12585 ft 169 kts 100°
2026-05-06 17:03 45.26716 -118.09014 12585 ft 170 kts 123°
2026-05-06 17:03 45.25946 -118.07698 12583 ft 173 kts 134°
2026-05-06 17:03 45.25072 -118.06559 12582 ft 173 kts 137°
2026-05-06 17:04 45.24179 -118.05413 12581 ft 172 kts 137°
2026-05-06 17:04 45.23296 -118.04274 12583 ft 172 kts 137°
2026-05-06 17:04 45.22404 -118.03140 12585 ft 173 kts 138°
2026-05-06 17:04 45.21507 -118.01993 12586 ft 174 kts 137°
2026-05-06 17:05 45.20608 -118.00846 12586 ft 174 kts 138°
2026-05-06 17:05 45.19710 -117.99699 12585 ft 173 kts 138°
2026-05-06 17:05 45.18821 -117.98552 12583 ft 173 kts 137°
2026-05-06 17:05 45.17933 -117.97406 12582 ft 172 kts 137°
2026-05-06 17:06 45.17040 -117.96265 12583 ft 173 kts 138°
2026-05-06 17:06 45.16142 -117.95118 12581 ft 173 kts 137°
2026-05-06 17:06 45.15245 -117.93963 12580 ft 175 kts 137°
2026-05-06 17:06 45.14346 -117.92813 12579 ft 174 kts 138°
2026-05-06 17:07 45.13450 -117.91665 12577 ft 173 kts 137°
2026-05-06 17:07 45.12561 -117.90516 12577 ft 174 kts 137°
2026-05-06 17:07 45.11666 -117.89369 12579 ft 174 kts 137°
2026-05-06 17:07 45.10761 -117.88233 12577 ft 174 kts 137°
2026-05-06 17:08 45.09857 -117.87101 12575 ft 174 kts 137°
2026-05-06 17:08 45.08957 -117.85963 12576 ft 173 kts 137°
2026-05-06 17:08 45.08067 -117.84820 12575 ft 173 kts 137°
2026-05-06 17:08 45.07171 -117.83680 12575 ft 173 kts 137°
2026-05-06 17:09 45.06266 -117.82547 12575 ft 174 kts 137°
2026-05-06 17:09 45.05364 -117.81411 12575 ft 174 kts 137°
2026-05-06 17:09 45.04459 -117.80263 12532 ft 176 kts 137°
2026-05-06 17:09 45.03547 -117.79093 12512 ft 177 kts 137°
2026-05-06 17:10 45.02638 -117.77935 12515 ft 175 kts 138°
2026-05-06 17:10 45.01733 -117.76789 12516 ft 175 kts 137°
2026-05-06 17:10 45.00824 -117.75642 12519 ft 175 kts 137°
2026-05-06 17:10 44.99928 -117.74512 12552 ft 175 kts 137°
2026-05-06 17:11 44.99021 -117.73367 12553 ft 174 kts 137°
2026-05-06 17:11 44.98124 -117.72225 12554 ft 174 kts 137°
2026-05-06 17:11 44.97228 -117.71084 12555 ft 174 kts 137°
2026-05-06 17:11 44.96322 -117.69942 12556 ft 175 kts 137°
2026-05-06 17:12 44.95412 -117.68802 12556 ft 175 kts 137°
2026-05-06 17:12 44.94497 -117.67668 12557 ft 175 kts 137°
2026-05-06 17:12 44.93581 -117.66532 12555 ft 176 kts 137°
2026-05-06 17:12 44.92668 -117.65389 12557 ft 175 kts 137°
2026-05-06 17:13 44.91761 -117.64252 12558 ft 175 kts 137°
2026-05-06 17:13 44.90853 -117.63110 12557 ft 175 kts 137°
2026-05-06 17:13 44.89940 -117.61971 12558 ft 175 kts 137°
2026-05-06 17:13 44.89023 -117.60829 12557 ft 176 kts 137°
2026-05-06 17:14 44.88109 -117.59687 12556 ft 176 kts 137°
2026-05-06 17:14 44.87192 -117.58537 12555 ft 176 kts 138°
2026-05-06 17:14 44.86272 -117.57400 12554 ft 175 kts 137°
2026-05-06 17:14 44.85360 -117.56258 12554 ft 175 kts 137°
2026-05-06 17:15 44.84448 -117.55119 12554 ft 175 kts 137°
2026-05-06 17:15 44.83538 -117.53979 12553 ft 175 kts 137°
2026-05-06 17:15 44.82626 -117.52837 12553 ft 176 kts 137°
2026-05-06 17:15 44.81707 -117.51692 12552 ft 176 kts 137°
2026-05-06 17:16 44.80788 -117.50550 12550 ft 176 kts 137°
2026-05-06 17:16 44.79870 -117.49407 12549 ft 176 kts 137°
2026-05-06 17:16 44.78950 -117.48263 12552 ft 176 kts 137°
2026-05-06 17:16 44.78029 -117.47127 12550 ft 176 kts 137°
2026-05-06 17:17 44.77108 -117.45988 12549 ft 176 kts 137°
2026-05-06 17:17 44.76188 -117.44852 12548 ft 176 kts 137°
2026-05-06 17:17 44.75268 -117.43719 12547 ft 176 kts 137°
2026-05-06 17:17 44.74350 -117.42580 12546 ft 176 kts 137°
2026-05-06 17:18 44.73430 -117.41440 12547 ft 177 kts 137°
2026-05-06 17:18 44.72498 -117.40349 12549 ft 177 kts 148°
2026-05-06 17:18 44.71357 -117.39720 12549 ft 176 kts 162°
2026-05-06 17:18 44.70179 -117.39288 12550 ft 175 kts 173°
2026-05-06 17:19 44.68976 -117.38997 12549 ft 175 kts 173°
2026-05-06 17:19 44.67773 -117.38713 12548 ft 175 kts 173°
2026-05-06 17:19 44.66574 -117.38414 12546 ft 175 kts 173°
2026-05-06 17:19 44.65371 -117.38121 12558 ft 175 kts 173°
2026-05-06 17:20 44.64172 -117.37843 12555 ft 174 kts 173°
2026-05-06 17:20 44.62978 -117.37555 12557 ft 174 kts 173°
2026-05-06 17:20 44.61788 -117.37259 12555 ft 173 kts 173°
2026-05-06 17:20 44.60592 -117.36976 12557 ft 175 kts 173°
2026-05-06 17:21 44.59393 -117.36701 12556 ft 174 kts 173°
2026-05-06 17:21 44.58192 -117.36421 12556 ft 175 kts 173°
2026-05-06 17:21 44.56997 -117.36145 12558 ft 173 kts 173°
2026-05-06 17:21 44.55813 -117.35861 12556 ft 172 kts 173°
2026-05-06 17:22 44.54629 -117.35589 12562 ft 173 kts 173°
2026-05-06 17:22 44.53447 -117.35311 12565 ft 172 kts 173°
2026-05-06 17:22 44.52262 -117.35029 12566 ft 173 kts 173°
2026-05-06 17:22 44.51074 -117.34745 12567 ft 173 kts 173°
2026-05-06 17:23 44.49884 -117.34460 12566 ft 173 kts 173°
2026-05-06 17:23 44.48694 -117.34183 12571 ft 173 kts 173°
2026-05-06 17:23 44.47509 -117.33897 12570 ft 173 kts 173°
2026-05-06 17:23 44.46321 -117.33611 12571 ft 173 kts 173°
2026-05-06 17:24 44.45132 -117.33325 12569 ft 173 kts 173°
2026-05-06 17:24 44.43947 -117.33037 12571 ft 173 kts 174°
2026-05-06 17:24 44.42760 -117.32745 12570 ft 173 kts 173°
2026-05-06 17:24 44.41574 -117.32460 12582 ft 174 kts 173°
2026-05-06 17:25 44.40388 -117.32187 12576 ft 175 kts 173°
2026-05-06 17:25 44.39191 -117.31910 12577 ft 174 kts 173°
2026-05-06 17:25 44.37992 -117.31633 12576 ft 175 kts 173°
2026-05-06 17:25 44.36794 -117.31355 12576 ft 174 kts 173°
2026-05-06 17:26 44.35597 -117.31079 12576 ft 174 kts 173°
2026-05-06 17:26 44.34397 -117.30800 12575 ft 174 kts 173°
2026-05-06 17:26 44.33199 -117.30525 12580 ft 174 kts 173°
2026-05-06 17:26 44.32000 -117.30252 12535 ft 177 kts 173°
2026-05-06 17:27 44.30787 -117.29979 12531 ft 176 kts 173°
2026-05-06 17:27 44.29581 -117.29710 12527 ft 175 kts 173°
2026-05-06 17:27 44.28377 -117.29435 12526 ft 175 kts 173°
2026-05-06 17:27 44.27175 -117.29158 12525 ft 175 kts 173°
2026-05-06 17:28 44.25980 -117.28885 12527 ft 174 kts 173°
2026-05-06 17:28 44.24787 -117.28609 12527 ft 173 kts 173°
2026-05-06 17:28 44.23599 -117.28332 12528 ft 173 kts 173°
2026-05-06 17:28 44.22413 -117.28058 12528 ft 173 kts 173°
2026-05-06 17:29 44.21221 -117.27785 12530 ft 174 kts 173°
2026-05-06 17:29 44.20021 -117.27514 12530 ft 175 kts 173°
2026-05-06 17:29 44.18816 -117.27248 12529 ft 175 kts 173°
2026-05-06 17:29 44.17632 -117.26983 12527 ft 175 kts 173°
2026-05-06 17:30 44.16418 -117.26709 12525 ft 175 kts 173°
2026-05-06 17:30 44.15234 -117.26445 12526 ft 175 kts 173°
2026-05-06 17:30 44.14034 -117.26172 12528 ft 175 kts 173°
2026-05-06 17:30 44.12835 -117.25900 12528 ft 174 kts 173°
2026-05-06 17:31 44.11638 -117.25625 12526 ft 174 kts 173°
2026-05-06 17:31 44.10442 -117.25352 12526 ft 174 kts 173°
2026-05-06 17:31 44.09242 -117.25081 12521 ft 175 kts 173°
2026-05-06 17:31 44.08044 -117.24812 12522 ft 175 kts 173°
2026-05-06 17:32 44.06841 -117.24537 12522 ft 175 kts 173°
2026-05-06 17:32 44.05638 -117.24266 12522 ft 175 kts 173°
2026-05-06 17:32 44.04435 -117.23998 12522 ft 175 kts 173°
2026-05-06 17:32 44.03234 -117.23728 12512 ft 174 kts 173°
2026-05-06 17:33 44.02044 -117.23456 12514 ft 173 kts 173°
2026-05-06 17:33 44.00851 -117.23194 12517 ft 173 kts 173°
2026-05-06 17:33 43.99661 -117.22940 12517 ft 173 kts 173°
2026-05-06 17:33 43.98469 -117.22679 12519 ft 174 kts 173°
2026-05-06 17:34 43.97677 -117.22505 12519 ft 174 kts 173°
2026-05-06 17:34 43.96480 -117.22250 12520 ft 174 kts 173°
2026-05-06 17:34 43.95282 -117.21988 12519 ft 174 kts 173°
2026-05-06 17:34 43.94082 -117.21730 12513 ft 174 kts 173°
2026-05-06 17:35 43.92883 -117.21468 12510 ft 175 kts 173°
2026-05-06 17:35 43.91679 -117.21208 12509 ft 174 kts 173°
2026-05-06 17:35 43.90488 -117.20943 12509 ft 174 kts 173°
2026-05-06 17:36 43.88095 -117.20423 12509 ft 174 kts 173°
2026-05-06 17:36 43.86898 -117.20159 12510 ft 174 kts 173°
2026-05-06 17:36 43.85703 -117.19893 12502 ft 174 kts 173°
2026-05-06 17:36 43.84503 -117.19631 12502 ft 175 kts 173°
2026-05-06 17:37 43.83305 -117.19369 12505 ft 174 kts 173°
2026-05-06 17:37 43.82106 -117.19105 12506 ft 176 kts 173°
2026-05-06 17:37 43.80892 -117.18847 12505 ft 177 kts 173°
2026-05-06 17:37 43.79696 -117.18598 12523 ft 175 kts 173°
2026-05-06 17:38 43.78489 -117.18350 12520 ft 176 kts 173°
2026-05-06 17:38 43.77282 -117.18092 12523 ft 175 kts 173°
2026-05-06 17:38 43.76073 -117.17825 12521 ft 176 kts 173°
2026-05-06 17:38 43.74863 -117.17552 12517 ft 176 kts 166°
2026-05-06 17:39 43.73862 -117.16643 12517 ft 174 kts 133°
2026-05-06 17:39 43.73015 -117.15454 12515 ft 173 kts 133°
2026-05-06 17:39 43.72101 -117.14362 12517 ft 175 kts 137°
2026-05-06 17:39 43.71176 -117.13264 12515 ft 175 kts 136°
2026-05-06 17:40 43.70259 -117.12158 12510 ft 175 kts 136°
2026-05-06 17:40 43.69343 -117.11059 12509 ft 175 kts 136°
2026-05-06 17:40 43.68427 -117.09955 12508 ft 174 kts 136°
2026-05-06 17:40 43.67516 -117.08852 12508 ft 175 kts 136°
2026-05-06 17:41 43.66598 -117.07747 12508 ft 175 kts 136°
2026-05-06 17:41 43.65686 -117.06641 12512 ft 175 kts 136°
2026-05-06 17:41 43.64778 -117.05530 12511 ft 175 kts 136°
2026-05-06 17:41 43.63858 -117.04423 12512 ft 175 kts 136°
2026-05-06 17:42 43.62957 -117.03337 12512 ft 174 kts 136°
2026-05-06 17:42 43.62040 -117.02224 12514 ft 174 kts 136°
2026-05-06 17:42 43.61145 -117.01129 12516 ft 174 kts 136°
2026-05-06 17:42 43.60235 -117.00023 12518 ft 175 kts 136°
2026-05-06 17:43 43.59321 -116.98917 12505 ft 175 kts 136°
2026-05-06 17:43 43.58406 -116.97808 12506 ft 175 kts 136°
2026-05-06 17:43 43.57496 -116.96691 12507 ft 175 kts 135°
2026-05-06 17:43 43.56581 -116.95582 12507 ft 175 kts 137°
2026-05-06 17:44 43.55664 -116.94477 12511 ft 175 kts 136°
2026-05-06 17:44 43.54751 -116.93363 12512 ft 175 kts 136°
2026-05-06 17:44 43.53836 -116.92258 12512 ft 175 kts 136°
2026-05-06 17:44 43.52919 -116.91154 12515 ft 175 kts 135°
2026-05-06 17:45 43.52006 -116.90046 12514 ft 175 kts 136°
2026-05-06 17:45 43.51086 -116.88939 12516 ft 175 kts 136°
2026-05-06 17:45 43.50173 -116.87826 12516 ft 175 kts 136°
2026-05-06 17:45 43.49258 -116.86721 12517 ft 175 kts 136°
2026-05-06 17:46 43.48344 -116.85616 12517 ft 175 kts 136°
2026-05-06 17:46 43.47431 -116.84513 12518 ft 175 kts 136°
2026-05-06 17:46 43.46520 -116.83402 12519 ft 175 kts 136°
2026-05-06 17:46 43.45607 -116.82295 12519 ft 175 kts 136°
2026-05-06 17:47 43.44692 -116.81188 12518 ft 175 kts 136°
2026-05-06 17:47 43.43782 -116.80085 12520 ft 174 kts 136°
2026-05-06 17:47 43.42876 -116.78978 12521 ft 174 kts 136°
2026-05-06 17:47 43.41966 -116.77876 12519 ft 175 kts 136°
2026-05-06 17:48 43.41054 -116.76772 12522 ft 175 kts 136°
2026-05-06 17:48 43.40145 -116.75664 12522 ft 174 kts 136°
2026-05-06 17:48 43.39238 -116.74553 12520 ft 175 kts 136°
2026-05-06 17:48 43.38329 -116.73445 12521 ft 175 kts 136°
2026-05-06 17:49 43.37421 -116.72338 12519 ft 175 kts 136°
2026-05-06 17:49 43.36509 -116.71232 12519 ft 175 kts 136°
2026-05-06 17:49 43.35599 -116.70122 12518 ft 175 kts 136°
2026-05-06 17:49 43.34689 -116.69012 12517 ft 175 kts 136°
2026-05-06 17:50 43.33774 -116.67903 12514 ft 175 kts 136°
2026-05-06 17:50 43.32856 -116.66800 12514 ft 175 kts 136°
2026-05-06 17:50 43.31937 -116.65701 12513 ft 175 kts 135°
2026-05-06 17:50 43.31020 -116.64598 12513 ft 175 kts 136°
2026-05-06 17:51 43.30102 -116.63495 12512 ft 175 kts 136°
2026-05-06 17:51 43.29184 -116.62394 12513 ft 175 kts 136°
2026-05-06 17:51 43.28267 -116.61293 12510 ft 175 kts 136°
2026-05-06 17:51 43.27352 -116.60194 12511 ft 175 kts 136°
2026-05-06 17:52 43.26435 -116.59092 12509 ft 175 kts 136°
2026-05-06 17:52 43.25520 -116.57992 12507 ft 175 kts 136°
2026-05-06 17:52 43.24604 -116.56888 12505 ft 175 kts 136°
2026-05-06 17:52 43.23688 -116.55784 12503 ft 175 kts 136°
2026-05-06 17:53 43.22773 -116.54683 12502 ft 175 kts 136°
2026-05-06 17:53 43.21856 -116.53582 12504 ft 175 kts 135°
2026-05-06 17:53 43.20942 -116.52480 12505 ft 175 kts 136°
2026-05-06 17:53 43.20024 -116.51373 12504 ft 175 kts 136°
2026-05-06 17:54 43.19123 -116.50289 12502 ft 175 kts 136°
2026-05-06 17:54 43.18202 -116.49197 12503 ft 175 kts 135°
2026-05-06 17:54 43.17283 -116.48109 12504 ft 175 kts 136°
2026-05-06 17:54 43.16361 -116.47018 12504 ft 175 kts 136°
2026-05-06 17:55 43.15441 -116.45929 12501 ft 175 kts 136°
2026-05-06 17:55 43.14519 -116.44834 12501 ft 175 kts 135°
2026-05-06 17:55 43.13606 -116.43758 12501 ft 175 kts 136°
2026-05-06 17:55 43.12682 -116.42669 12500 ft 175 kts 136°
2026-05-06 17:56 43.11765 -116.41583 12498 ft 175 kts 136°
2026-05-06 17:56 43.10860 -116.40522 12500 ft 174 kts 136°
2026-05-06 17:56 43.09944 -116.39440 12502 ft 174 kts 135°
2026-05-06 17:56 43.09108 -116.38454 12498 ft 174 kts 136°
2026-05-06 17:57 43.08192 -116.37375 12504 ft 174 kts 136°
2026-05-06 17:57 43.07277 -116.36293 12505 ft 174 kts 136°
2026-05-06 17:57 43.06399 -116.35252 12505 ft 173 kts 136°
2026-05-06 17:57 43.05472 -116.34151 12505 ft 173 kts 135°
2026-05-06 17:58 43.04562 -116.33069 12503 ft 174 kts 136°
2026-05-06 17:58 43.03644 -116.31983 12503 ft 174 kts 135°
2026-05-06 17:58 43.02728 -116.30904 12508 ft 174 kts 136°
2026-05-06 17:58 43.01807 -116.29823 12507 ft 174 kts 136°
2026-05-06 17:59 43.00960 -116.28638 12508 ft 174 kts 128°
2026-05-06 17:59 43.00149 -116.27417 12506 ft 173 kts 128°
2026-05-06 17:59 42.99339 -116.26202 12507 ft 173 kts 128°
2026-05-06 17:59 42.98527 -116.24986 12521 ft 173 kts 128°
2026-05-06 18:00 42.97735 -116.23786 12528 ft 173 kts 124°
2026-05-06 18:00 42.97344 -116.22252 12526 ft 168 kts 83°
2026-05-06 18:00 42.97609 -116.20764 12543 ft 156 kts 63°
2026-05-06 18:00 42.97955 -116.19374 12537 ft 154 kts 63°
2026-05-06 18:01 42.98296 -116.18005 12533 ft 154 kts 63°
2026-05-06 18:01 42.98637 -116.16627 12540 ft 153 kts 63°
2026-05-06 18:01 42.98974 -116.15251 12536 ft 152 kts 63°
2026-05-06 18:01 42.99310 -116.13881 12538 ft 152 kts 62°
2026-05-06 18:02 42.99649 -116.12514 12538 ft 152 kts 63°
2026-05-06 18:02 42.99981 -116.11147 12540 ft 151 kts 62°
2026-05-06 18:02 43.00315 -116.09781 12544 ft 151 kts 62°
2026-05-06 18:02 43.00653 -116.08420 12544 ft 151 kts 62°
2026-05-06 18:03 43.00986 -116.07063 12544 ft 151 kts 63°
2026-05-06 18:03 43.01318 -116.05702 12547 ft 151 kts 63°
2026-05-06 18:03 43.01652 -116.04339 12551 ft 151 kts 63°
2026-05-06 18:03 43.01990 -116.02976 12554 ft 151 kts 62°
2026-05-06 18:04 43.02327 -116.01619 12555 ft 151 kts 63°
2026-05-06 18:04 43.02663 -116.00259 12558 ft 151 kts 62°
2026-05-06 18:04 43.03002 -115.98895 12561 ft 151 kts 63°
2026-05-06 18:04 43.03338 -115.97536 12559 ft 151 kts 63°
2026-05-06 18:05 43.03672 -115.96176 12555 ft 151 kts 63°
2026-05-06 18:05 43.04005 -115.94817 12557 ft 150 kts 62°
2026-05-06 18:05 43.04340 -115.93463 12558 ft 150 kts 62°
2026-05-06 18:05 43.04674 -115.92109 12559 ft 151 kts 63°
2026-05-06 18:06 43.05008 -115.90749 12560 ft 151 kts 63°
2026-05-06 18:06 43.05341 -115.89390 12560 ft 150 kts 63°
2026-05-06 18:06 43.05673 -115.88034 12557 ft 151 kts 62°
2026-05-06 18:06 43.06011 -115.86677 12559 ft 151 kts 62°
2026-05-06 18:07 43.06346 -115.85322 12568 ft 150 kts 63°
2026-05-06 18:07 43.06676 -115.83964 12563 ft 151 kts 62°
2026-05-06 18:07 43.07004 -115.82599 12564 ft 151 kts 62°
2026-05-06 18:07 43.07328 -115.81232 12559 ft 151 kts 63°
2026-05-06 18:08 43.07652 -115.79866 12558 ft 151 kts 62°
2026-05-06 18:08 43.07974 -115.78503 12558 ft 151 kts 62°
2026-05-06 18:08 43.08297 -115.77137 12558 ft 151 kts 62°
2026-05-06 18:08 43.08617 -115.75779 12557 ft 151 kts 63°
2026-05-06 18:09 43.08941 -115.74413 12555 ft 151 kts 62°
2026-05-06 18:09 43.09265 -115.73050 12554 ft 150 kts 62°
2026-05-06 18:09 43.09588 -115.71687 12552 ft 150 kts 62°
2026-05-06 18:09 43.09910 -115.70327 12552 ft 150 kts 63°
2026-05-06 18:10 43.10235 -115.68963 12550 ft 150 kts 62°
2026-05-06 18:10 43.10553 -115.67602 12548 ft 151 kts 63°
2026-05-06 18:10 43.10882 -115.66241 12547 ft 150 kts 62°
2026-05-06 18:10 43.11215 -115.64886 12544 ft 150 kts 62°
2026-05-06 18:11 43.11520 -115.63537 12540 ft 150 kts 64°
2026-05-06 18:11 43.11701 -115.62601 12539 ft 151 kts 67°
2026-05-06 18:11 43.11945 -115.60718 12536 ft 153 kts 74°
2026-05-06 18:11 43.11999 -115.59259 12535 ft 155 kts 81°
2026-05-06 18:12 43.11920 -115.57779 12533 ft 158 kts 89°
2026-05-06 18:12 43.11693 -115.56297 12533 ft 160 kts 97°
2026-05-06 18:12 43.11314 -115.54848 12531 ft 163 kts 105°
2026-05-06 18:12 43.10786 -115.53456 12531 ft 166 kts 114°
2026-05-06 18:13 43.10132 -115.52141 12531 ft 169 kts 121°
2026-05-06 18:13 43.09370 -115.50904 12529 ft 171 kts 127°
2026-05-06 18:13 43.08519 -115.49749 12528 ft 173 kts 132°
2026-05-06 18:13 43.07608 -115.48661 12526 ft 174 kts 136°
2026-05-06 18:14 43.06654 -115.47630 12525 ft 175 kts 139°
2026-05-06 18:14 43.05670 -115.46633 12525 ft 176 kts 140°
2026-05-06 18:14 43.04674 -115.45649 12524 ft 177 kts 141°
2026-05-06 18:14 43.03683 -115.44667 12522 ft 176 kts 140°
2026-05-06 18:15 43.02701 -115.43660 12524 ft 176 kts 139°
2026-05-06 18:15 43.01737 -115.42617 12523 ft 176 kts 136°
2026-05-06 18:15 43.00806 -115.41531 12521 ft 176 kts 134°
2026-05-06 18:15 42.99912 -115.40396 12521 ft 175 kts 131°
2026-05-06 18:16 42.99056 -115.39213 12517 ft 175 kts 128°
2026-05-06 18:16 42.98242 -115.37986 12516 ft 174 kts 126°
2026-05-06 18:16 42.97465 -115.36718 12515 ft 174 kts 123°
2026-05-06 18:16 42.96722 -115.35421 12514 ft 173 kts 122°
2026-05-06 18:17 42.96005 -115.34103 12514 ft 172 kts 120°
2026-05-06 18:17 42.95319 -115.32785 12508 ft 172 kts 119°
2026-05-06 18:17 42.94645 -115.31434 12508 ft 172 kts 118°
2026-05-06 18:17 42.93983 -115.30077 12506 ft 172 kts 117°
2026-05-06 18:18 42.93326 -115.28717 12508 ft 172 kts 116°
2026-05-06 18:18 42.92674 -115.27351 12510 ft 172 kts 116°
2026-05-06 18:18 42.92025 -115.25985 12510 ft 172 kts 117°
2026-05-06 18:18 42.91358 -115.24632 12511 ft 172 kts 118°
2026-05-06 18:19 42.90678 -115.23289 12520 ft 172 kts 119°
2026-05-06 18:19 42.89983 -115.21968 12524 ft 171 kts 120°
2026-05-06 18:19 42.89514 -115.21101 12525 ft 171 kts 121°
2026-05-06 18:19 42.88798 -115.19802 12515 ft 172 kts 121°
2026-05-06 18:20 42.88071 -115.18508 12516 ft 172 kts 122°
2026-05-06 18:20 42.87335 -115.17229 12518 ft 172 kts 122°
2026-05-06 18:20 42.86592 -115.15950 12512 ft 172 kts 123°
2026-05-06 18:20 42.85839 -115.14675 12514 ft 172 kts 123°
2026-05-06 18:21 42.85085 -115.13409 12516 ft 172 kts 123°
2026-05-06 18:21 42.84331 -115.12141 12504 ft 172 kts 123°
2026-05-06 18:21 42.83580 -115.10867 12505 ft 172 kts 123°
2026-05-06 18:21 42.82831 -115.09593 12506 ft 172 kts 123°
2026-05-06 18:22 42.82082 -115.08318 12509 ft 172 kts 123°
2026-05-06 18:22 42.81332 -115.07040 12507 ft 173 kts 123°
2026-05-06 18:22 42.80587 -115.05762 12504 ft 172 kts 123°
2026-05-06 18:22 42.79841 -115.04480 12505 ft 172 kts 122°
2026-05-06 18:23 42.79105 -115.03197 12500 ft 172 kts 122°
2026-05-06 18:23 42.78370 -115.01908 12500 ft 172 kts 122°
2026-05-06 18:23 42.77641 -115.00617 12499 ft 172 kts 122°
2026-05-06 18:23 42.76915 -114.99325 12498 ft 172 kts 122°
2026-05-06 18:24 42.76187 -114.98035 12501 ft 171 kts 122°
2026-05-06 18:24 42.75456 -114.96752 12499 ft 171 kts 122°
2026-05-06 18:24 42.74726 -114.95474 12501 ft 171 kts 121°
2026-05-06 18:24 42.73999 -114.94191 12501 ft 171 kts 122°
2026-05-06 18:25 42.73279 -114.92929 12494 ft 170 kts 122°
2026-05-06 18:25 42.72543 -114.91643 12351 ft 172 kts 122°
2026-05-06 18:25 42.71815 -114.90366 12222 ft 172 kts 122°
2026-05-06 18:25 42.71085 -114.89099 12158 ft 170 kts 123°
2026-05-06 18:26 42.70359 -114.87823 12010 ft 172 kts 122°
2026-05-06 18:26 42.69631 -114.86544 11932 ft 170 kts 122°
2026-05-06 18:26 42.68902 -114.85286 11829 ft 170 kts 123°
2026-05-06 18:26 42.68165 -114.84030 11719 ft 169 kts 123°
2026-05-06 18:27 42.67433 -114.82781 11611 ft 169 kts 123°
2026-05-06 18:27 42.66702 -114.81525 11493 ft 169 kts 123°
2026-05-06 18:27 42.65987 -114.80273 11396 ft 168 kts 122°
2026-05-06 18:27 42.65283 -114.79009 11286 ft 168 kts 122°
2026-05-06 18:28 42.64581 -114.77736 11084 ft 172 kts 122°
2026-05-06 18:28 42.63850 -114.76394 10821 ft 177 kts 122°
2026-05-06 18:28 42.63103 -114.75061 10518 ft 183 kts 123°
2026-05-06 18:28 42.62326 -114.73648 10136 ft 187 kts 121°
2026-05-06 18:29 42.61570 -114.72244 9887 ft 180 kts 125°
2026-05-06 18:29 42.60756 -114.70958 9522 ft 181 kts 128°
2026-05-06 18:29 42.59994 -114.69578 9119 ft 183 kts 121°
2026-05-06 18:29 42.59294 -114.68173 8873 ft 177 kts 123°
2026-05-06 18:30 42.58580 -114.66803 8507 ft 179 kts 122°
2026-05-06 18:30 42.57887 -114.65432 8182 ft 178 kts 122°
2026-05-06 18:30 42.57226 -114.64030 7929 ft 175 kts 120°
2026-05-06 18:30 42.56555 -114.62647 7596 ft 177 kts 121°
2026-05-06 18:31 42.55889 -114.61249 7305 ft 175 kts 122°
2026-05-06 18:31 42.55267 -114.59840 7073 ft 174 kts 118°
2026-05-06 18:31 42.54648 -114.58422 6743 ft 178 kts 115°
2026-05-06 18:31 42.54448 -114.56764 6479 ft 177 kts 89°
2026-05-06 18:32 42.54525 -114.55157 6370 ft 166 kts 81°
2026-05-06 18:32 42.54247 -114.53718 6156 ft 162 kts 131°
2026-05-06 18:32 42.53295 -114.52923 5891 ft 161 kts 173°
2026-05-06 18:32 42.52251 -114.53243 5683 ft 154 kts 216°
2026-05-06 18:33 42.51636 -114.54352 5571 ft 143 kts 253°
2026-05-06 18:33 42.51738 -114.55644 5352 ft 146 kts 301°
2026-05-06 18:33 42.52560 -114.56385 5236 ft 144 kts 349°
2026-05-06 18:33 42.53483 -114.55995 5049 ft 146 kts 40°
2026-05-06 18:34 42.53904 -114.54792 4981 ft 140 kts 91°
2026-05-06 18:34 42.53442 -114.53728 4874 ft 138 kts 150°
2026-05-06 18:34 42.52575 -114.53324 4934 ft 125 kts 168°
2026-05-06 18:34 42.51745 -114.53013 4902 ft 123 kts 155°
2026-05-06 18:35 42.51065 -114.52385 4766 ft 115 kts 140°
2026-05-06 18:35 42.50513 -114.51667 4671 ft 107 kts 137°
2026-05-06 18:35 42.49984 -114.50986 4509 ft 101 kts 135°
2026-05-06 18:35 42.49489 -114.50351 4337 ft 96 kts 136°
2026-05-06 18:36 42.49038 -114.49763 4223 ft 86 kts 136°
2026-05-06 18:36 42.48620 -114.49226 4133 ft 80 kts 137°
2026-05-06 18:36 42.48300 -114.48818 4135 ft 33 kts 137°
2026-05-06 18:36 42.48241 -114.48663 4138 ft 14 kts 90°
2026-05-06 18:37 42.48282 -114.48591 4140 ft 10 kts 11°
2026-05-06 18:37 42.48313 -114.48631 4140 ft 7 kts 219°
2026-05-06 18:37 42.48308 -114.48636 4137 ft 0 kts 218°